DW6283 Weather Reports


Display with metric or nautical units.
time (UTC)temp
F
wind
direction
speed
MPH
gust
MPH
rain 1hr
in
rain 24hr
in
rain mn
in
humidity
%
barometer
mb
20260505021556 59 109 0.0 1.0 0.00 0.00 0.00 70 1012.8
20260505020058 59 109 0.0 2.0 0.00 0.00 0.00 70 1013.0
20260505014536 59 109 0.0 1.0 0.00 0.00 0.00 69 1013.0
20260505013035 60 109 0.0 3.0 0.00 0.00 0.00 68 1013.1
20260505011534 60 109 0.0 1.0 0.00 0.00 0.00 67 1013.3
20260505010017 60 109 0.0 2.0 0.00 0.00 0.00 67 1013.3
20260505004607 61 109 0.0 2.0 0.00 0.00 0.00 66 1013.4
20260505003057 61 109 0.0 4.0 0.00 0.00 0.00 64 1013.5
20260505001549 61 108 0.0 4.0 0.00 0.00 0.00 63 1013.6
20260505000055 61 107 0.0 1.0 0.00 0.00 0.00 63 1013.6
20260504234542 62 107 0.0 4.0 0.00 0.00 0.00 61 1013.8
20260504233054 62 219 0.0 2.0 0.00 0.00 0.00 62 1013.8
20260504231538 61 219 0.0 2.0 0.00 0.00 0.00 63 1013.9
20260504230036 61 219 0.0 2.0 0.00 0.00 0.00 63 1014.1
20260504224536 61 219 0.0 2.0 0.00 0.00 0.00 65 1014.1
20260504223032 60 219 0.0 1.0 0.00 0.00 0.00 67 1014.3
20260504221514 59 219 0.0 3.0 0.00 0.00 0.00 69 1014.5
20260504220014 59 219 0.0 3.0 0.00 0.00 0.00 70 1014.7
20260504214606 58 219 0.0 3.0 0.00 0.00 0.00 71 1014.8
20260504213056 58 219 1.0 4.0 0.00 0.00 0.00 70 1014.9
20260504211538 59 219 1.0 3.0 0.00 0.00 0.00 67 1015.0
20260504210038 59 218 0.0 2.0 0.00 0.00 0.00 67 1015.1
20260504204524 59 218 1.0 3.0 0.00 0.00 0.00 67 1015.1
20260504203021 59 218 1.0 4.0 0.00 0.00 0.00 67 1015.0
20260504201501 60 90 0.0 2.0 0.00 0.00 0.00 65 1015.0
20260504200105 60 90 0.0 1.0 0.00 0.00 0.00 65 1014.9
20260504194540 59 90 0.0 1.0 0.00 0.00 0.00 68 1015.0
20260504193039 59 90 0.0 2.0 0.00 0.00 0.00 68 1015.1
20260504191525 59 90 0.0 0.0 0.00 0.00 0.00 69 1015.1
20260504190026 58 90 0.0 1.0 0.00 0.00 0.00 70 1015.2
20260504184525 58 90 0.0 1.0 0.00 0.00 0.00 70 1015.2
20260504183023 58 90 0.0 0.0 0.00 0.00 0.00 68 1015.3
20260504181521 58 90 0.0 1.0 0.00 0.00 0.00 68 1015.1
20260504180020 58 90 0.0 1.0 0.00 0.00 0.00 68 1015.1
20260504174517 58 90 0.0 1.0 0.00 0.00 0.00 68 1014.8
20260504173020 58 90 0.0 3.0 0.00 0.00 0.00 69 1014.7
20260504171558 58 90 0.0 1.0 0.00 0.00 0.00 69 1014.6
20260504081516 56 123 0.0 2.0 0.00 0.00 0.00 70 1012.9
20260504044609 59 110 0.0 6.0 0.00 0.00 0.00 59 1011.3
20260504043046 60 94 0.0 6.0 0.00 0.00 0.00 58 1011.1
20260504041537 61 93 0.0 2.0 0.00 0.00 0.00 59 1010.8
20260504040023 62 83 0.0 7.0 0.00 0.00 0.00 57 1010.7
20260504034517 63 96 1.0 7.0 0.00 0.00 0.00 56 1010.3
20260504033059 64 122 0.0 5.0 0.00 0.00 0.00 56 1010.2
20260504031559 65 142 0.0 8.0 0.00 0.00 0.00 54 1009.9
20260504030041 67 86 2.0 9.0 0.00 0.00 0.00 52 1009.6
20260504024540 69 125 1.0 6.0 0.00 0.00 0.00 50 1009.2
20260504023026 72 82 0.0 5.0 0.00 0.00 0.00 48 1008.9